Location: Three Oaks Observatory
(31.1535°N, 83.5955°W)
Time: 15:52:17
(UTC-05:00)

FALCONSAT 3 - Pass Details

Date: 22 October 2019
Orbit: 454 x 456 km, 35.4° (Epoch: 21 November)

Event Time Altitude Azimuth Distance (km) Brightness Sun altitude
Exits shadow 06:37:40 23° 307° (NW) 998 ? -14.4°
Maximum altitude 06:39:28 42° 5° (N) 653 ? -14.1°
Drops below altitude 10° 06:42:55 10° 78° (ENE) 1,580 ? -13.3°
Sets 06:45:09 0° 86° (E) 2,451 ? -12.8°
